Weather in Tagilskoye

Russia / Kurgan Oblast     55°55′28″N   64°25′37″E
temp.,
°C
wind,
m/s
gust,
m/s
humid.,
%
clouds,
%
prec.,
mm/h
press.,
hPa
HPBL,
m
6 march, sat
sat623:00−4nw4896100 2.8 998423
02:00−5wnw51091100 0.7 1000469
05:00−11w6139067 0.7 1004331
08:00−14w5119211 0.0 1007255
11:00−10wsw59886 0.0 1008377
14:00−7wsw610860 0.0 1008691
17:00−6wsw5118546 0.0 1008766
20:00−9sw6138724 0.0 1009281
7 march, sun
sun723:00−10wsw489153 0.1 1011192
02:00−15w239330 0.0 101220
05:00−17sw229241 0.0 101320
08:00−16sse1293100 0.0 101220
11:00−10se2389100 0.0 1012253
14:00−8e3494100 0.4 1009367
17:00−8ene4595100 1.4 1005335
20:00−9n5795100 1.5 1002305
8 march, mon
mon823:00−10nw61094100 2.6 1003458
02:00−15wnw5109391 0.1 1006238
05:00−20w479952 0.1 100896
08:00−21wsw459644 0.0 101082
11:00−15sw489145 0.0 1010268
14:00−10ssw61083100 0.0 1009625
17:00−9ssw61291100 0.1 1007881
20:00−9ssw61391100 0.3 1006612
9 march, tue
tue923:00−7ssw71590100 0.3 1006547
02:00−7ssw81688100 0.0 1004568
05:00−6ssw71489100 0.0 1004529
08:00−6ssw71493100 0.1 1004611
11:00−4sw61093100 0.5 1003654
14:00−3wsw5790100 1.1 1004719
17:00−4wsw488697 1.3 1005368
20:00−9wsw5108328 0.1 1007198
10 march, wed
wed1023:00−12wsw488815 0.1 1009125
02:00−15wsw459215 0.0 101078
05:00−17wsw349340 0.0 101155
08:00−19wsw349433 0.0 101179
11:00−15wsw459253 0.0 1011262
14:00−12w358942 0.0 1011337
17:00−12w359240 0.0 1010278
20:00−17w23959 0.0 101120